CTLRVL-WX Weather Reports


time (UTC)temp
C
wind
direction
speed
KPH
gust
KPH
rain 1hr
cm
rain 24hr
cm
rain mn
cm
humidity
%
barometer
mb
20260509074603 7 192 11.3 0.0 0.00 0.00 0.00 73 980.6
20260509073123 7 189 12.9 0.0 0.00 0.00 0.00 73 980.6
20260509071604 7 189 12.9 0.0 0.00 0.00 0.00 73 980.5
20260509070134 7 185 11.3 0.0 0.00 0.00 0.00 73 980.5
20260509064603 7 178 11.3 0.0 0.00 0.00 0.00 47 981.0
20260509063120 7 175 14.5 0.0 0.00 0.00 0.00 49 980.6
20260509061603 7 176 12.9 0.0 0.00 0.00 0.00 49 980.6
20260509060149 7 169 11.3 0.0 0.00 0.00 0.00 49 980.6
20260509054603 7 167 11.3 0.0 0.00 0.00 0.00 45 981.9
20260509053118 7 163 9.7 0.0 0.00 0.00 0.00 49 981.4
20260509051601 7 163 11.3 0.0 0.00 0.00 0.00 49 981.4
20260509050135 7 167 11.3 0.0 0.00 0.00 0.00 49 981.4
20260509044602 7 167 9.7 0.0 0.00 0.00 0.00 42 982.4
20260509043118 7 171 9.7 0.0 0.00 0.00 0.00 44 981.1
20260509041602 8 171 11.3 0.0 0.00 0.00 0.00 44 981.1
20260509040139 8 170 11.3 0.0 0.00 0.00 0.00 44 981.1
20260509034602 8 168 11.3 0.0 0.00 0.00 0.00 44 981.8
20260509033117 8 176 9.7 0.0 0.00 0.00 0.00 41 982.5
20260509031602 9 172 9.7 0.0 0.00 0.00 0.00 41 982.6
20260509030135 9 165 9.7 0.0 0.00 0.00 0.00 41 982.6
20260509024601 9 159 9.7 0.0 0.00 0.00 0.00 35 982.9
20260509023119 10 165 9.7 0.0 0.00 0.00 0.00 35 982.8
20260509021602 10 176 9.7 0.0 0.00 0.00 0.00 35 982.8
20260509020131 10 178 9.7 0.0 0.00 0.00 0.00 35 982.8
20260509014601 11 186 9.7 0.0 0.00 0.00 0.00 34 982.9
20260509013115 11 196 6.4 0.0 0.00 0.00 0.00 34 982.9
20260509011601 12 193 6.4 0.0 0.00 0.00 0.00 34 982.9
20260509010129 12 214 4.8 0.0 0.00 0.00 0.00 34 982.9
20260509004559 13 228 4.8 0.0 0.00 0.00 0.00 30 982.6
20260509003118 13 241 6.4 0.0 0.00 0.00 0.00 28 983.9
20260509001559 13 254 4.8 0.0 0.00 0.00 0.00 28 983.9
20260509000142 14 258 6.4 0.0 0.00 0.00 0.00 28 983.9
20260508234602 15 259 8.0 0.0 0.00 0.00 0.00 23 983.2
20260508233121 15 262 11.3 0.0 0.00 0.00 0.00 22 983.7
20260508231604 15 260 11.3 0.0 0.00 0.00 0.00 22 983.7
20260508230127 15 267 12.9 0.0 0.00 0.00 0.00 22 983.7
20260508224603 15 267 12.9 0.0 0.00 0.00 0.00 22 983.8
20260508223121 16 267 14.5 0.0 0.00 0.00 0.00 21 984.7
20260508221604 15 266 16.1 0.0 0.00 0.00 0.00 21 984.7
20260508220129 16 265 16.1 0.0 0.00 0.00 0.00 21 984.7
20260508214604 16 265 17.7 0.0 0.00 0.00 0.00 21 985.3
20260508213121 16 264 17.7 0.0 0.00 0.00 0.00 22 984.6
20260508211604 16 258 16.1 0.0 0.00 0.00 0.00 22 984.6
20260508210133 16 258 16.1 0.0 0.00 0.00 0.00 22 984.6
20260508204604 16 256 16.1 0.0 0.00 0.00 0.00 24 984.8
20260508203122 16 253 17.7 0.0 0.00 0.00 0.00 21 984.5
20260508201604 16 251 14.5 0.0 0.00 0.00 0.00 21 984.6
20260508200129 16 249 16.1 0.0 0.00 0.00 0.00 21 984.6
20260508194604 16 247 14.5 0.0 0.00 0.00 0.00 19 984.7
20260508193118 16 247 16.1 0.0 0.00 0.00 0.00 19 984.7
20260508191603 16 255 14.5 0.0 0.00 0.00 0.00 19 984.8
20260508190127 16 255 14.5 0.0 0.00 0.00 0.00 19 984.8
20260508184603 16 255 14.5 0.0 0.00 0.00 0.00 21 985.2
20260508183123 16 249 14.5 0.0 0.00 0.00 0.00 22 984.8
20260508181603 16 251 16.1 0.0 0.00 0.00 0.00 22 984.8
20260508180134 16 250 16.1 0.0 0.00 0.00 0.00 22 984.8
20260508174604 16 244 16.1 0.0 0.00 0.00 0.00 31 985.9
20260508173122 16 251 17.7 0.0 0.00 0.00 0.00 31 985.9
20260508171603 15 242 14.5 0.0 0.00 0.00 0.00 31 985.9
20260508170129 15 245 14.5 0.0 0.00 0.00 0.00 31 985.9
20260508164603 15 246 14.5 0.0 0.00 0.00 0.00 36 986.3
20260508163122 15 240 14.5 0.0 0.00 0.00 0.00 36 986.4
20260508161603 13 233 12.9 0.0 0.00 0.00 0.00 36 986.3
20260508160134 13 230 12.9 0.0 0.00 0.00 0.00 36 986.3
20260508154604 13 223 11.3 0.0 0.00 0.00 0.00 49 987.4
20260508153124 12 209 11.3 0.0 0.00 0.00 0.00 47 986.2
20260508151603 12 198 11.3 0.0 0.00 0.00 0.00 47 986.2
20260508150134 11 196 11.3 0.0 0.00 0.00 0.00 47 986.2
20260508144604 11 194 9.7 0.0 0.00 0.00 0.00 61 986.4
20260508143121 11 194 9.7 0.0 0.00 0.00 0.00 58 986.6
20260508141604 10 189 8.0 0.0 0.00 0.00 0.00 58 986.6
20260508140142 10 185 6.4 0.0 0.00 0.00 0.00 60 986.4
20260508134604 9 185 6.4 0.0 0.00 0.00 0.00 69 986.4
20260508133118 8 189 8.0 0.0 0.00 0.00 0.00 69 986.4
20260508131603 7 187 8.0 0.0 0.00 0.00 0.00 69 986.4
20260508130138 7 186 9.7 0.0 0.00 0.00 0.00 69 986.4
20260508124604 6 184 8.0 0.0 0.00 0.00 0.00 80 985.8
20260508123122 6 193 8.0 0.0 0.00 0.00 0.00 81 986.3
20260508121603 5 188 4.8 0.0 0.00 0.00 0.00 81 986.3
20260508120151 3 167 3.2 0.0 0.00 0.00 0.00 81 986.3
20260508114603 2 156 3.2 0.0 0.00 0.00 0.00 77 985.9
20260508113125 2 153 3.2 0.0 0.00 0.00 0.00 83 986.4
20260508111603 2 137 4.8 0.0 0.00 0.00 0.00 83 986.5
20260508110129 1 137 6.4 0.0 0.00 0.00 0.00 83 986.5
20260508104605 1 137 6.4 0.0 0.00 0.00 0.00 79 985.6
20260508103123 1 120 4.8 0.0 0.00 0.00 0.00 75 986.5
20260508101606 2 120 4.8 0.0 0.00 0.00 0.00 75 986.5
20260508100130 2 126 4.8 0.0 0.00 0.00 0.00 75 986.5
20260508094605 2 127 4.8 0.0 0.00 0.00 0.00 76 985.9
20260508093119 2 129 3.2 0.0 0.00 0.00 0.00 78 986.5
20260508091605 2 155 4.8 0.0 0.00 0.00 0.00 78 986.6
20260508090134 2 159 6.4 0.0 0.00 0.00 0.00 78 986.6
20260508084605 2 162 6.4 0.0 0.00 0.00 0.00 84 986.2
20260508083123 2 167 4.8 0.0 0.00 0.00 0.00 73 985.8
20260508081604 3 166 6.4 0.0 0.00 0.00 0.00 73 985.8
20260508080136 3 156 6.4 0.0 0.00 0.00 0.00 73 985.8